Regional Weather Roundup
Issued by NWS

Home | Current Version | Previous Version | Text Only | Print | Product List | Glossary On
Versions: 1 2 3 4 5 6 7 8 9 10 11 12 13 14 15 16 17 18 19 20 21 22 23 24 25 26 27 28 29 30 31 32 33 34 35 36 37 38 39 40 41 42 43 44 45 46 47 48 49 50
291
ASUS44 KOUN 251010
RWROK

WEATHER ROUNDUP FOR OKLAHOMA
NATIONAL WEATHER SERVICE NORMAN OK
500 AM CDT MON JUL 25 2016

NOTE: "FAIR" INDICATES FEW OR NO CLOUDS BELOW 12,000 FEET WITH NO
      SIGNIFICANT WEATHER AND/OR OBSTRUCTIONS TO VISIBILITY.

OKZ001>007-009>012-014-015-017-251100-
NORTHWEST OKLAHOMA AND THE PANHANDLE

CITY           SKY/WX    TMP DP  RH WIND       PRES   REMARKS
GAGE           CLOUDY    72  69  90 E6        30.07F
GUYMON         CLOUDY    69  66  90 NE7       30.11F
ENID/WOODRING  CLOUDY    81  70  69 NW17      30.01R
$$

OKZ016-021>023-033>039-044-045-251100-
SOUTHWEST OKLAHOMA

CITY           SKY/WX    TMP DP  RH WIND       PRES   REMARKS
LAWTON/REGL    CLEAR     74  71  91 NE3       29.98R
LAWTON/FT SILL CLEAR     78  71  78 N2        29.97R
FREDERICK      CLEAR     79  70  74 CALM      29.95R
CLINTON        CLOUDY    82  66  58 N14       30.08R
HOBART         CLOUDY    80  69  69 CALM      30.01R
ALTUS AFB      CLOUDY    76  70  79 E5        29.98R
$$

OKZ018>020-024>031-251100-
CENTRAL OKLAHOMA

CITY           SKY/WX    TMP DP  RH WIND       PRES   REMARKS
OKLAHOMA CITY  CLOUDY    79  71  76 SW3       29.99R
OKC/WILEY POST CLOUDY    82  69  64 S8        29.99R
OKC/TINKER AFB CLOUDY    78  72  79 S6        29.98R
STILLWATER     CLOUDY    82  71  69 CALM      29.97R
GUTHRIE        CLOUDY    82  71  69 S3        29.98R
$$

OKZ008-013-054>072-251100-
NORTHEAST OKLAHOMA

CITY           SKY/WX    TMP DP  RH WIND       PRES   REMARKS
TULSA          CLOUDY    84  74  71 S9        29.95R HX  91
TULSA/JONES    CLOUDY    82  74  76 S5        29.96R
PONCA CITY     CLOUDY    82  73  74 VRB6      29.98R
BARTLESVILLE   CLOUDY    79  73  82 CALM      29.97R
MUSKOGEE       CLEAR     76  73  91 S5        29.99R
$$

OKZ032-040>043-046>053-073>077-251100-
SOUTH CENTRAL/SOUTHEAST OKLAHOMA

CITY           SKY/WX    TMP DP  RH WIND       PRES   REMARKS
ARDMORE/DWNTWN CLEAR     77  68  73 CALM      29.97R
MCALESTER      CLEAR     78  71  79 S3        29.99R
$$





USA.gov is the U.S. government's official web portal to all federal, state and local government web resources and services.